Weather History for KMIE - June, 2013

Change the Weather History Date:

Monday, June 17, 2013

  Actual Average Record
Temperature  
Mean Temperature 76 °F 72 °F  
Max Temperature 85 °F 82 °F 91 °F (1967)
Min Temperature 67 °F 62 °F 46 °F (1980)
Degree Days  
Heating Degree Days 0 0  
Month to date heating degree days 14 21  
Since 1 June heating degree days 14 21  
Since 1 July heating degree days 5380 5780  
Cooling Degree Days 11 8  
Month to date cooling degree days 79 100  
Year to date cooling degree days 247 183  
Since 1 June cooling degree days 79 100  
Growing Degree Days 25 (Base 50)    
Moisture  
Dew Point 65 °F    
Average Humidity 72    
Maximum Humidity 100    
Minimum Humidity 43    
Precipitation  
Precipitation 0.00 in 0.15 in 0.79 in (1982)
Month to date precipitation 3.60 2.68  
Year to date precipitation 19.41 18.25  
Sea Level Pressure  
Sea Level Pressure 29.94 in    
Wind  
Wind Speed 4 mph (WSW)    
Max Wind Speed 9 mph    
Max Gust Speed 14 mph    
Visibility 7 miles    
Events      
T = Trace of Precipitation, MM = Missing Value Source: NWS Daily Summary

Daily Weather History Graph

Daily Weather History Graph

Search for Another Location

Airport or City:

Trip Planner

Search our weather history database for the weather conditions in past years. The results will help you decide how hot, cold, wet, or windy it might be!

Date:

Astronomy

Jun. 17, 2013 Rise Set
Actual Time 6:11 AM EDT 9:13 PM EDT
Civil Twilight 5:38 AM EDT 9:46 PM EDT
Nautical Twilight 4:56 AM EDT 10:28 PM EDT
Astronomical Twilight 4:07 AM EDT 11:17 PM EDT
Moon 2:51 PM EDT (6/17) 1:47 AM EDT (6/17)
Length of Visible Light 16h 08m
Length of Day
15h 02m
First Quarter, 60% of the Moon is Illuminated
Jun 17
First Quarter
Jun 23
Full
Jun 30
Last Quarter
Jul 8
New
Jul 15
First Quarter

Hourly Weather History & Observations

Time (EDT) Temp. Heat Index Dew Point Humidity Pressure Visibility Wind Dir Wind Speed Gust Speed Precip Events Conditions
12:53 AM 69.1 °F - 66.0 °F 90% 29.94 in 10.0 mi SW 5.8 mph - N/A   Clear
1:53 AM 69.1 °F - 66.0 °F 90% 29.94 in 8.0 mi SW 4.6 mph - N/A   Scattered Clouds
2:53 AM 69.1 °F - 66.0 °F 90% 29.94 in 7.0 mi SSW 5.8 mph - N/A   Mostly Cloudy
3:53 AM 66.9 °F - 66.0 °F 97% 29.94 in 4.0 mi SW 3.5 mph - N/A   Partly Cloudy
4:10 AM 68.0 °F - 66.2 °F 94% 29.96 in 5.0 mi SW 4.6 mph - N/A   Mostly Cloudy
4:26 AM 68.0 °F - 66.2 °F 94% 29.96 in 5.0 mi SSW 4.6 mph - N/A   Overcast
4:53 AM 68.0 °F - 66.0 °F 93% 29.94 in 5.0 mi SW 4.6 mph - N/A   Overcast
5:11 AM 68.0 °F - 66.2 °F 94% 29.97 in 4.0 mi SW 4.6 mph - N/A   Overcast
5:36 AM 68.0 °F - 66.2 °F 94% 29.97 in 4.0 mi SW 3.5 mph - N/A   Scattered Clouds
5:53 AM 68.0 °F - 66.0 °F 93% 29.94 in 4.0 mi WSW 3.5 mph - N/A   Scattered Clouds
6:03 AM 68.0 °F - 66.2 °F 94% 29.97 in 4.0 mi Variable 3.5 mph - N/A   Mostly Cloudy
6:53 AM 69.1 °F - 66.0 °F 90% 29.94 in 3.0 mi SW 4.6 mph - N/A   Overcast
7:38 AM 69.8 °F - 66.2 °F 88% 29.98 in 2.5 mi West 4.6 mph - N/A   Overcast
7:53 AM 69.1 °F - 66.9 °F 93% 29.95 in 2.5 mi WSW 4.6 mph - N/A   Overcast
8:01 AM 69.8 °F - 66.2 °F 88% 29.98 in 2.5 mi West 5.8 mph - N/A   Overcast
8:51 AM 69.8 °F - 66.2 °F 88% 29.99 in 3.0 mi Calm Calm - N/A   Overcast
8:53 AM 70.0 °F - 66.9 °F 90% 29.96 in 3.0 mi Calm Calm - N/A   Overcast
9:00 AM 69.8 °F - 66.2 °F 88% 29.99 in 3.0 mi West 3.5 mph - N/A   Overcast
9:40 AM 71.6 °F - 66.2 °F 83% 29.98 in 5.0 mi WSW 4.6 mph - N/A   Haze
9:53 AM 73.0 °F - 68.0 °F 84% 29.95 in 7.0 mi SSW 5.8 mph - N/A   Clear
10:53 AM 78.1 °F - 68.0 °F 71% 29.95 in 10.0 mi NW 3.5 mph - N/A   Clear
11:53 AM 80.1 °F 82.1 °F 66.0 °F 62% 29.95 in 10.0 mi West 5.8 mph - N/A   Scattered Clouds
12:53 PM 81.0 °F 81.9 °F 62.1 °F 52% 29.94 in 10.0 mi West 5.8 mph - N/A   Scattered Clouds
1:53 PM 82.9 °F 83.7 °F 62.1 °F 49% 29.94 in 10.0 mi WNW 3.5 mph - N/A   Clear
2:53 PM 84.0 °F 84.4 °F 61.0 °F 46% 29.93 in 10.0 mi West 8.1 mph - N/A   Partly Cloudy
3:53 PM 82.9 °F 83.2 °F 60.1 °F 46% 29.91 in 10.0 mi Variable 3.5 mph - N/A   Scattered Clouds
4:53 PM 84.0 °F 84.0 °F 60.1 °F 44% 29.88 in 10.0 mi NNW 5.8 mph - N/A   Partly Cloudy
5:53 PM 84.0 °F 83.8 °F 59.0 °F 43% 29.88 in 10.0 mi NW 6.9 mph - N/A   Clear
6:53 PM 82.9 °F 82.8 °F 59.0 °F 44% 29.87 in 10.0 mi North 6.9 mph - N/A   Clear
7:53 PM 80.1 °F 81.7 °F 64.0 °F 58% 29.89 in 10.0 mi North 4.6 mph - N/A   Clear
8:53 PM 78.1 °F - 66.0 °F 66% 29.89 in 10.0 mi Calm Calm - N/A   Clear
9:53 PM 75.0 °F - 68.0 °F 79% 29.89 in 10.0 mi Calm Calm - N/A   Clear
10:53 PM 73.9 °F - 66.0 °F 76% 29.88 in 10.0 mi Calm Calm - N/A   Clear
11:53 PM 73.0 °F - 64.0 °F 73% 29.87 in 10.0 mi Calm Calm - N/A   Clear